Volver al catálogo

STARLINK-31572

ActivoComunicacionesVLEO
NORAD 59333·PAYLOAD·🇺🇸 United States

Lanzado Mar 25, 2024 desde Cape Canaveral Space Force Station

Loading…

Próximos Pases (próximas 24 horas)

TLE

ActualizadoSource: CelesTrak SupGP

Época: Sep 15, 2026, 01:50 UTC

1 59333C 24057P   26258.07687500 -.00060695  00000+0 -21985-2 0  2589
2 59333  42.9996 208.8460 0001331 268.8463  45.6801 15.27607243    19

Sigue STARLINK-31572 en tiempo real con AllMySat

Download on the App Store